[Iaude] MPEC R152: 2016 RX33 [a=1.25,e=0.44,i=14.6,H=22.7]

mpec at mpc.eps.harvard.edu mpec at mpc.eps.harvard.edu
Tue Sep 13 22:31:16 EDT 2016


M.P.E.C. 2016-R152                               Issued 2016 Sept. 14, 02:28 UT
 
     The Minor Planet Electronic Circulars contain information on unusual
         minor planets and routine data on comets.  They are published
    on behalf of Division F of the International Astronomical Union by the
          Minor Planet Center, Smithsonian Astrophysical Observatory,
                          Cambridge, MA 02138, U.S.A.

             Prepared using the Tamkin Foundation Computer Network

                              MPC at CFA.HARVARD.EDU
            URL http://www.minorplanetcenter.net/    ISSN 1523-6714


                                   2016 RX33
 
Observations:
     K16R33X* C2016 09 10.31122 23 46 35.53 +07 14 41.1          20.7 VqER152G96
     K16R33X  C2016 09 10.31503 23 46 34.90 +07 14 23.4          20.7 VqER152G96
     K16R33X  C2016 09 10.46148 23 46 11.28 +07 03 07.3          20.9 VqER152G96
     K16R33X  C2016 09 10.46189 23 46 11.19 +07 03 06.0          20.6 VqER152G96
     K16R33X  C2016 09 10.46230 23 46 11.15 +07 03 04.5          20.9 VqER152G96
     K16R33X  C2016 09 10.46272 23 46 11.10 +07 03 01.8          21.5 VqER152G96
     K16R33X KC2016 09 11.23639 23 44 19.61 +06 04 38.3          20.1 RoER152291
     K16R33X KC2016 09 11.23846 23 44 19.26 +06 04 29.1          20.2 RoER152291
     K16R33X KC2016 09 11.24054 23 44 18.95 +06 04 19.8          20.1 RoER152291
     K16R33X KC2016 09 11.25677323 44 15.61 +06 03 03.3          21.1 VuER152H21
     K16R33X KC2016 09 11.26530823 44 14.27 +06 02 25.4          21.1 VuER152H21
     K16R33X "C2016 09 11.27453023 44 13.49 +06 01 47.4          20.6 RtER152705
     K16R33X "C2016 09 11.27555223 44 13.33 +06 01 42.9          20.7 RtER152705
     K16R33X "C2016 09 11.27656723 44 13.20 +06 01 38.9          20.7 RtER152705
     K16R33X KC2016 09 11.27727023 44 12.42 +06 01 31.8          21.3 VuER152H21
     K16R33X  C2016 09 12.22551 23 41 59.16 +04 52 23.4          20.6 VqER152G96
     K16R33X  C2016 09 12.22823 23 41 58.65 +04 52 11.9          20.7 VqER152G96
     K16R33X  C2016 09 12.23212 23 41 58.15 +04 51 55.0          20.3 VqER152G96
     K16R33X KC2016 09 13.17512 23 39 50.11 +03 45 36.3                oER152291
     K16R33X KC2016 09 13.18306 23 39 48.95 +03 45 03.5                oER152291
     K16R33X KC2016 09 13.19104 23 39 47.86 +03 44 30.4                oER152291
 
Observer details:
291 LPL/Spacewatch II.  Observers R. S. McMillan, A. F. Tubbiolo.  1.8-m f/2.7
    reflector + CCD.
705 Apache Point.  Observers K. Nault, M. Hammergren, M. Brucker.  Measurer
    K. Nault.  3.5-m f/10 reflector + CCD.
G96 Mt. Lemmon Survey.  Observers A. R. Gibbs, R. A. Kowalski.  Measurers
    E. J. Christensen, D. C. Fuls, A. R. Gibbs, A. D. Grauer, J. A. Johnson,
    R. A. Kowalski, S. M. Larson, G. J. Leonard, R. G. Matheny, R. L. Seaman,
    F. C. Shelly.  1.5-m reflector + 10K CCD.
H21 Astronomical Research Observatory, Westfield.  Observer R. Holmes.
    Measurers S. Foglia, L. Buzzi, T. Linder, R. Holmes.  0.76-m f/3.0
    astrograph + CCD.
 
Orbital elements:
2016 RX33                                                Earth MOID = 0.1070 AU
Epoch 2016 July 31.0 TT = JDT 2457600.5                 MPC
M  35.80184              (2000.0)            P               Q
n   0.70644284     Peri.   57.54878     -0.58850474     +0.80832876
a   1.2485848      Node   176.27535     -0.80017699     -0.57944184
e   0.4386878      Incl.   14.56218     -0.11566741     -0.10417181
P   1.40           H   22.7           G   0.15           U   9
Residuals in seconds of arc
160910 G96  0.3-  0.1+    160911 291  0.3-  0.1+    160911 H21  0.2-  0.5-
160910 G96  0.4-  0.1-    160911 291  0.1-  0.1+    160912 G96  0.8+  0.2+
160910 G96  0.1+  0.3-    160911 H21  0.4-  0.4-    160912 G96  0.8-  0.4+
160910 G96  0.3-  0.3+    160911 H21  0.5-  0.3-    160912 G96  0.4+  0.2+
160910 G96  0.1+  0.7+    160911 705  0.6+  0.5-    160913 291  0.1+  0.0
160910 G96  0.3+  0.0     160911 705  0.6+  0.5-    160913 291  0.5-  0.0
160911 291  0.1+  0.1+    160911 705  1.0+  0.0     160913 291  0.1+  0.1-

Ephemeris:
2016 RX33                a,e,i = 1.25, 0.44, 15                  q = 0.7008
Date    TT    R. A. (2000) Decl.     Delta      r     Elong.  Phase     V
2016 08 15    01 34 31.2 +48 31 48   0.2003  1.0614    98.6    70.6    21.8
...
2016 08 30    00 21 54.4 +24 16 46   0.2074  1.1712   137.6    35.5    21.1
...
2016 09 07    23 55 28.7 +11 44 40   0.2334  1.2272   157.9    18.0    20.9
...
2016 09 13    23 40 12.2 +03 58 03   0.2640  1.2677   171.3     6.9    20.8
2016 09 14    23 38 00.6 +02 49 58   0.2700  1.2744   173.3     5.3    20.8
2016 09 15    23 35 54.8 +01 44 40   0.2761  1.2809   175.1     3.8    20.8
...
2016 09 21    23 25 14.7 -03 50 54   0.3179  1.3197   172.3     5.9    21.3
...
2016 09 29    23 15 37.0 -09 06 53   0.3845  1.3690   159.8    14.6    22.1
...
2016 10 14    23 09 08.0 -14 14 29   0.5361  1.4544   141.2    25.5    23.3

A. U. Tomatic                (C) Copyright 2016 MPC           M.P.E.C. 2016-R152




More information about the Iaude mailing list